This is the latest recevied weather packets stored in our database for station/object F4GQK-13. If no packets are shown the sender has not sent any weather packets the latest 10 day(s).
| Time | Temp. | Humidity | Pressure | Rain* | Wind** | Luminosity | Snow |
|---|---|---|---|---|---|---|---|
| 1777835405 | 15° C | 90% | 1012.5 hPa | 0 mm | - | 2 W/m² | - |
| 1777835105 | 15.56° C | 89% | 1012.3 hPa | 0 mm | - | 4 W/m² | - |
| 1777834804 | 15.56° C | 89% | 1012.4 hPa | 0 mm | - | 5 W/m² | - |
| 1777834505 | 15.56° C | 89% | 1012.3 hPa | 0 mm | - | 7 W/m² | - |
| 1777834205 | 16.11° C | 88% | 1012.4 hPa | 0 mm | - | 10 W/m² | - |
| 1777833905 | 16.11° C | 88% | 1012.3 hPa | 0 mm | - | 12 W/m² | - |
| 1777833605 | 16.67° C | 88% | 1012.4 hPa | 0 mm | - | 17 W/m² | - |
| 1777833305 | 16.67° C | 88% | 1012.3 hPa | 0 mm | - | 21 W/m² | - |
| 1777833005 | 16.67° C | 87% | 1012.3 hPa | 0 mm | - | 24 W/m² | - |
| 1777832705 | 16.67° C | 87% | 1012.2 hPa | 0 mm | - | 26 W/m² | - |
| 1777832403 | 16.67° C | 88% | 1012.1 hPa | 0 mm | - | 32 W/m² | - |
| 1777832105 | 16.67° C | 88% | 1012 hPa | 0 mm | - | 32 W/m² | - |
| 1777831805 | 16.67° C | 88% | 1011.9 hPa | 0 mm | - | 53 W/m² | - |
| 1777831505 | 16.67° C | 88% | 1012 hPa | 0 mm | - | 48 W/m² | - |
| 1777831205 | 17.22° C | 87% | 1011.9 hPa | 0 mm | - | 59 W/m² | - |
| 1777830905 | 17.22° C | 86% | 1011.9 hPa | 0 mm | - | 77 W/m² | - |
| 1777830605 | 17.22° C | 86% | 1012 hPa | 0 mm | - | 85 W/m² | - |
| 1777830304 | 17.78° C | 86% | 1011.9 hPa | 0 mm | - | 47 W/m² | - |
| 1777830005 | 17.78° C | 86% | 1011.9 hPa | 0 mm | - | 64 W/m² | - |
| 1777829705 | 17.78° C | 85% | 1011.6 hPa | 0 mm | - | 149 W/m² | - |
| 1777829405 | 18.33° C | 83% | 1011.7 hPa | 0 mm | - | 178 W/m² | - |
| 1777829105 | 18.33° C | 82% | 1011.7 hPa | 0 mm | - | 175 W/m² | - |
| 1777828805 | 18.33° C | 81% | 1011.9 hPa | 0 mm | - | 157 W/m² | - |
| 1777828505 | 18.33° C | 82% | 1011.9 hPa | 0 mm | - | 230 W/m² | - |
| 1777828205 | 18.33° C | 83% | 1011.8 hPa | 0 mm | - | 243 W/m² | - |
* Rain latest hour (hover to see other rain measurements)
** Current wind speed in m/s (hover to see current wind gust speed)